ABS-4 (MOBISAT-1)

Last updated on Mon Oct 14 2024 00:02:37 GMT+0000 (Coordinated Universal Time)

1 28184U 04007A 24287.49021865 .00000042 00000+0 00000+0 0 9996 2 28184 4.4820 79.3944 0006341 141.9503 38.6909 1.00270218 46204
UTC large
Height (km)
Speed (km/s)
/
Latitude / Longitude
Inclination (degrees)
Orbital Period (minutes)
Azimuth
Elevation
Range (km)
Doppler Factor

Next 0 passes for location: London (51.5072 / 0.1276)

Sorry there are no passes over London.